Location: Poughquag
(41.6090°N, 73.6820°W)
Time: 21:18:59
(UTC-05:00)

Transit 2A - Pass Details

Date: 13 December 2023
Orbit: 600 x 953 km, 66.7° (Epoch: 23 February)

Event Time Altitude Azimuth Distance (km) Brightness Sun altitude
Rises 12:00:08 0° 170° (S) 3,234 10.5 25.2°
Reaches altitude 10° 12:03:14 10° 153° (SSE) 2,240 9.5 25.1°
Maximum altitude 12:06:44 19° 109° (ESE) 1,647 8.1 25.1°
Drops below altitude 10° 12:10:02 10° 65° (ENE) 2,103 8.1 25.0°
Sets 12:12:49 0° 47° (NE) 2,967 8.6 25.0°
